Content
SEND FEEDBACK

Daily
Averages
Monthly
Summary
United States of America

WICHITA, KANSAS


Home > North America > United States > Kansas
Elevation: 1321 feet     Latitude: 37 39N     Longitude: 097 26W

WEATHER
 
SELECT A DAY
Number of Records: 191,904;   Date Range: 1/1/95 - 7/29/14
 
SHARE

PRINT THIS DATA

[ ← Previous Day ]
WEATHER ALMANAC - FEBRUARY 11, 2013
[ Next Day → ]
[ °C ]   °F
Weather ElementAverageHighLow
Temperature37.3 °F46.9 °F (2:53 pm)28.9 °F (5:53 am)
Dewpoint19.8 °F23 °F (1:53 am)17.1 °F (12:53 pm)
Humidity51.6 %75 % (5:53 am)30 % (2:53 pm)
Barometer30.18 in30.25 in (9:53 am)30.11 in (1:53 am)
Wind Speed8.2 mph15 mph (11:53 am)
Wind Gust19.6 mph (11:53 am)
Weather ElementAverage
Visibility10 mi
Wind DirectionWSW (241.3 °)

Weather ElementTotal
Precipitation---
Heating Degree Days27.1 (Base 65)
Averaged from 23 records on February 11, 2013
WEATHER CONDITIONS BREAKOUT
WIND DIRECTION BREAKOUT
WEATHER BY HOUR - FEBRUARY 11, 2013
[ °C ]   °F
Local TimeTemperatureDewpointHumidityBarometerVisibilityWind DirectionWind SpeedGust SpeedPrecipitationEventsConditions
1:53 AM33.1 °F23.0 °F66 %30.11 in10.0 miNW (320°)11.5 mphClear
2:53 AM32.0 °F21.9 °F66 %30.12 in10.0 miNW (310°)11.5 mphClear
3:53 AM32.0 °F21.9 °F66 %30.13 in10.0 miNW (310°)11.5 mphClear
4:53 AM30.0 °F21.9 °F72 %30.16 in10.0 miWNW (300°)10.4 mphClear
5:53 AM28.9 °F21.9 °F75 %30.17 in10.0 miNW (320°)11.5 mphClear
6:53 AM30.0 °F21.0 °F69 %30.17 in10.0 miNNW (330°)13.8 mphPartly Cloudy
7:53 AM28.9 °F21.0 °F72 %30.22 in10.0 miNW (320°)8.1 mphPartly Cloudy
8:53 AM33.1 °F21.0 °F61 %30.24 in10.0 miNNW (330°)10.4 mphPartly Cloudy
9:53 AM37.0 °F19.0 °F48 %30.25 in10.0 miNorth (350°)10.4 mphPartly Cloudy
10:53 AM39.9 °F19.0 °F43 %30.25 in10.0 miNorth (350°)13.8 mphPartly Cloudy
11:53 AM42.1 °F18.0 °F38 %30.24 in10.0 miNorth (360°)15.0 mph19.6 mphPartly Cloudy
12:53 PM44.1 °F17.1 °F34 %30.21 in10.0 miNorth (350°)11.5 mphPartly Cloudy
1:53 PM45.0 °F17.1 °F33 %30.19 in10.0 miNNW (340°)3.5 mphPartly Cloudy
2:53 PM46.9 °F17.1 °F30 %30.16 in10.0 miNNE (30°)6.9 mphPartly Cloudy
3:53 PM46.9 °F17.1 °F30 %30.15 in10.0 miNNE (30°)5.8 mphClear
4:53 PM46.9 °F17.1 °F30 %30.14 in10.0 miNE (50°)5.8 mphClear
5:53 PM43.0 °F17.1 °F35 %30.14 in10.0 miNorth (350°)4.6 mphClear
6:53 PM41.0 °F19.0 °F41 %30.16 in10.0 miNorth (360°)5.8 mphPartly Cloudy
7:53 PM39.0 °F19.9 °F46 %30.17 in10.0 miNNE (30°)4.6 mphScattered Clouds
8:53 PM37.9 °F19.9 °F48 %30.17 in10.0 miNNE (30°)4.6 mphScattered Clouds
9:53 PM32.0 °F21.0 °F64 %30.19 in10.0 miCalmMostly Cloudy
10:53 PM34.0 °F21.9 °F61 %30.20 in10.0 miNNE (20°)3.5 mphMostly Cloudy
11:53 PM35.1 °F21.9 °F59 %30.20 in10.0 miNorth (360°)3.5 mphMostly Cloudy
Hourly data recorded from KICT, located miles away from Wichita, Kansas







STORIES FROM OUR PARTNERS